Details From LIMG - ALBENGA
To LFKC - St Catherine
Flight Number -
Tags generated
Created
Modified
Stats Distance 96 nm / 178 km
Max Altitude 8,600 ft / 2,621 m
Waypoints 3
Social Downloads 0
Likes 0
Share VATSIM

Download

Looking for another format? Having issues loading an existing format? Contact us
Advertisement - Login to hide

Notes

Basic altitude profile: - Ascent Rate: 700ft/min - Ascent Speed: 80kts - Cruise Altitude: 4500ft - Cruise Speed: 100kts - Descent Rate: 700ft/min - Descent Speed: 120kts Options: - Use NATs: yes - Use PACOTS: yes - Use low airways: yes - Use high airways: yes

Route

LIMG NIRDO LFKC

ID Type Via Altitude (ft/m) Position (lat/lon) Dist (leg/tot) Name
O LIMG APT - 0 / 0 44.05058 / 8.12740 - / 0 nm ALBENGA
NIRDO FIX - 8,600 / 2,621 43.14556 / 8.43472 55 / 55 nm
O LFKC APT - 0 / 0 42.53076 / 8.79292 40 / 96 nm St Catherine

Altitude Profile

Advertisement - Login to hide

LIMG

Details ICAO LIMG (ALL)
Name Albenga Airport
Region Italy
Timezone Europe/Rome (UTC+1.0)
Stats Elevation 148 ft / 45 m (AMSL)
Location 44.050600° 8.127430°
Runways 1
Magnetic Variation 2.368° E

METAR

LIMG 250850Z 00000KT 9999 BKN035 13/09 Q1015

Decode

TAF

Not found

Departure Runways

ID Width Length Bearing (true/mag) Surface Threshold Overrun Markings Lighting
09 148 ft / 45 m 4,684 ft / 1,428 m 92.91° / 90.54° ASPHALT 279 ft / 85 m 0 ft / 0 m VISUAL CENTERLINE EDGE THRESHOLD
27 148 ft / 45 m 4,684 ft / 1,428 m 272.92° / 270.56° ASPHALT 0 ft / 0 m 420 ft / 128 m VISUAL CENTERLINE EDGE THRESHOLD

LFKC

Details ICAO LFKC (CLY)
Name St Catherine
Region France
Timezone Europe/Paris (UTC+1.0)
Stats Elevation 208 ft / 63 m (AMSL)
Location 42.530800° 8.792980°
Runways 1
Magnetic Variation 2.481° E

METAR

LFKC 250900Z AUTO 34006KT 290V030 CAVOK 20/00 Q1015 NOSIG

Decode

TAF

TAF LFKC 250800Z 2509/2609 24015KT CAVOK TX20/2513Z TN06/2604Z TEMPO 2511/2519 22017G30KT BECMG 2521/2524 02015KT SCT030 BECMG 2602/2604 SHRA SCT020TCU BKN030 PROB40 TEMPO 2603/2609 02020G45KT

Decode

Destination Runways

ID Width Length Bearing (true/mag) Surface Threshold Overrun Markings Lighting
18 131 ft / 40 m 7,586 ft / 2,312 m 179.81° / 177.33° CONCRETE 0 ft / 0 m 0 ft / 0 m APP CENTERLINE EDGE THRESHOLD
36 131 ft / 40 m 7,586 ft / 2,312 m 359.81° / 357.33° CONCRETE 663 ft / 202 m 0 ft / 0 m APP CENTERLINE EDGE THRESHOLD ALSF-I

Approach Navaids

Runway Type Ident Frequency Range Bearing (true/mag) Slope Elevation
18 DME CLI 109.50 MHz 18 nm / 33 km - - 230 ft / 70 m (AMSL)
18 LOC-LOC CLI 109.50 MHz 18 nm / 33 km 179.81° / 177.33 ° - 208 ft / 63 m (AMSL)

Popular Alternatives